Time,TemperatureF,DewpointF,PressureIn,WindDirection,WindDirectionDegrees,WindSpeedMPH,WindSpeedGustMPH,Humidity,HourlyPrecipIn,Conditions,Clouds,dailyrainin,SoftwareType,DateUTC
2013-03-10 00:01:00,24.0,23.0,30.64,East,79,0.0,0.0,96,0.00,,,0.30,,2013-03-10 05:01:00,
2013-03-10 00:11:00,24.0,23.0,30.64,East,79,0.0,0.0,96,0.00,,,0.30,,2013-03-10 05:11:00,
2013-03-10 00:22:00,25.0,24.0,30.64,East,79,0.0,0.0,97,0.00,,,0.30,,2013-03-10 05:22:00,
2013-03-10 00:32:00,25.0,24.0,30.65,East,79,0.0,0.0,97,0.00,,,0.30,,2013-03-10 05:32:00,
2013-03-10 00:42:00,24.0,23.0,30.65,East,79,0.0,0.0,96,0.00,,,0.30,,2013-03-10 05:42:00,
2013-03-10 00:52:00,24.0,23.0,30.65,East,79,0.0,0.0,96,0.00,,,0.30,,2013-03-10 05:52:00,
2013-03-10 01:01:00,24.0,23.0,30.66,East,79,0.0,0.0,96,0.00,,,0.30,,2013-03-10 06:01:00,
2013-03-10 01:11:00,24.0,23.0,30.66,East,79,0.0,0.0,96,0.00,,,0.30,,2013-03-10 06:11:00,
2013-03-10 01:22:00,24.0,23.0,30.66,East,79,0.0,0.0,97,0.00,,,0.30,,2013-03-10 06:22:00,
2013-03-10 01:32:00,24.0,23.0,30.66,East,79,0.0,0.0,96,0.00,,,0.30,,2013-03-10 06:32:00,
2013-03-10 01:42:00,24.0,23.0,30.66,East,79,0.0,0.0,97,0.00,,,0.30,,2013-03-10 06:42:00,
2013-03-10 01:52:00,24.0,23.0,30.66,East,79,0.0,0.0,97,0.00,,,0.30,,2013-03-10 06:52:00,
2013-03-10 03:02:00,24.0,23.0,30.66,East,79,0.0,0.0,96,0.00,,,0.30,,2013-03-10 07:02:00,
2013-03-10 03:11:00,24.0,23.0,30.66,East,79,0.0,0.0,96,0.00,,,0.30,,2013-03-10 07:11:00,
2013-03-10 03:21:00,24.0,23.0,30.66,East,79,0.0,0.0,97,0.00,,,0.30,,2013-03-10 07:21:00,
2013-03-10 03:32:00,24.0,23.0,30.66,East,79,0.0,0.0,97,0.00,,,0.30,,2013-03-10 07:32:00,
2013-03-10 03:42:00,23.0,22.0,30.66,East,79,0.0,0.0,96,0.00,,,0.30,,2013-03-10 07:42:00,
2013-03-10 03:52:00,23.0,22.0,30.66,East,79,0.0,0.0,96,0.00,,,0.30,,2013-03-10 07:52:00,
2013-03-10 04:01:00,23.0,22.0,30.66,East,79,0.0,0.0,96,0.00,,,0.30,,2013-03-10 08:01:00,
2013-03-10 04:11:00,23.0,22.0,30.66,East,79,0.0,0.0,96,0.00,,,0.30,,2013-03-10 08:11:00,
2013-03-10 04:21:00,23.0,22.0,30.66,East,79,0.0,0.0,97,0.00,,,0.30,,2013-03-10 08:21:00,
2013-03-10 04:31:00,23.0,22.0,30.66,East,79,0.0,0.0,96,0.00,,,0.30,,2013-03-10 08:31:00,
2013-03-10 04:42:00,23.0,22.0,30.66,East,79,0.0,0.0,96,0.00,,,0.30,,2013-03-10 08:42:00,
2013-03-10 04:52:00,22.0,21.0,30.66,East,79,0.0,0.0,96,0.00,,,0.30,,2013-03-10 08:52:00,
2013-03-10 05:02:00,23.0,22.0,30.66,East,79,0.0,0.0,97,0.00,,,0.30,,2013-03-10 09:02:00,
2013-03-10 05:11:00,23.0,22.0,30.66,East,79,0.0,0.0,97,0.00,,,0.30,,2013-03-10 09:11:00,
2013-03-10 05:21:00,22.0,21.0,30.66,East,79,0.0,0.0,96,0.00,,,0.30,,2013-03-10 09:21:00,
2013-03-10 05:31:00,22.0,21.0,30.66,East,79,0.0,0.0,96,0.00,,,0.30,,2013-03-10 09:31:00,
2013-03-10 05:41:00,22.0,21.0,30.66,East,79,0.0,0.0,96,0.00,,,0.30,,2013-03-10 09:41:00,
2013-03-10 05:52:00,22.0,21.0,30.67,East,79,0.0,0.0,96,0.00,,,0.30,,2013-03-10 09:52:00,
2013-03-10 06:01:00,22.0,21.0,30.67,East,79,0.0,0.0,96,0.00,,,0.30,,2013-03-10 10:01:00,
2013-03-10 06:11:00,22.0,21.0,30.67,East,79,0.0,0.0,96,0.00,,,0.30,,2013-03-10 10:11:00,
2013-03-10 06:21:00,21.0,20.0,30.67,East,79,0.0,0.0,96,0.00,,,0.30,,2013-03-10 10:21:00,
2013-03-10 06:32:00,21.0,20.0,30.67,East,79,0.0,0.0,96,0.00,,,0.30,,2013-03-10 10:32:00,
2013-03-10 06:42:00,21.0,20.0,30.67,East,79,0.0,0.0,96,0.00,,,0.30,,2013-03-10 10:42:00,
2013-03-10 06:52:00,21.0,20.0,30.67,East,79,0.0,0.0,96,0.00,,,0.30,,2013-03-10 10:52:00,
2013-03-10 07:01:00,21.0,20.0,30.67,East,79,0.0,0.0,96,0.00,,,0.30,,2013-03-10 11:01:00,
2013-03-10 07:12:00,21.0,20.0,30.68,East,79,0.0,0.0,96,0.00,,,0.30,,2013-03-10 11:12:00,
2013-03-10 07:21:00,21.0,20.0,30.68,East,79,0.0,0.0,96,0.00,,,0.30,,2013-03-10 11:21:00,
2013-03-10 07:32:00,21.0,20.0,30.68,East,79,0.0,0.0,96,0.00,,,0.30,,2013-03-10 11:32:00,
2013-03-10 07:42:00,21.0,20.0,30.68,East,79,0.0,0.0,96,0.00,,,0.30,,2013-03-10 11:42:00,
2013-03-10 07:52:00,20.0,19.0,30.68,East,79,0.0,0.0,95,0.00,,,0.30,,2013-03-10 11:52:00,
2013-03-10 08:01:00,21.0,20.0,30.69,East,79,0.0,0.0,96,0.00,,,0.30,,2013-03-10 12:01:00,
2013-03-10 08:11:00,21.0,20.0,30.69,East,79,0.0,0.0,96,0.00,,,0.30,,2013-03-10 12:11:00,
2013-03-10 08:21:00,22.0,21.0,30.70,East,79,0.0,0.0,96,0.00,,,0.30,,2013-03-10 12:21:00,
2013-03-10 08:31:00,22.0,21.0,30.70,East,79,0.0,0.0,96,0.00,,,0.30,,2013-03-10 12:31:00,
2013-03-10 08:42:00,22.0,21.0,30.70,East,79,0.0,0.0,96,0.00,,,0.30,,2013-03-10 12:42:00,
2013-03-10 08:52:00,25.0,24.0,30.71,East,79,0.0,0.0,97,0.00,,,0.30,,2013-03-10 12:52:00,
2013-03-10 09:01:00,26.0,25.0,30.71,East,79,0.0,0.0,97,0.00,,,0.30,,2013-03-10 13:01:00,
2013-03-10 09:11:00,26.0,25.0,30.71,East,79,0.0,0.0,97,0.00,,,0.30,,2013-03-10 13:11:00,
2013-03-10 09:21:00,29.0,28.0,30.70,East,79,0.0,0.0,97,0.00,,,0.30,,2013-03-10 13:21:00,
2013-03-10 09:31:00,30.0,29.0,30.71,East,79,0.0,0.0,96,0.00,,,0.30,,2013-03-10 13:31:00,
2013-03-10 09:42:00,30.0,29.0,30.71,East,79,0.0,0.0,96,0.00,,,0.30,,2013-03-10 13:42:00,
2013-03-10 09:52:00,30.0,29.0,30.71,West,271,0.0,1.0,95,0.00,,,0.30,,2013-03-10 13:52:00,
2013-03-10 10:02:00,31.0,30.0,30.71,West,271,0.0,0.0,95,0.00,,,0.30,,2013-03-10 14:02:00,
2013-03-10 10:11:00,31.0,30.0,30.71,West,271,0.0,0.0,95,0.00,,,0.30,,2013-03-10 14:11:00,
2013-03-10 10:22:00,31.0,30.0,30.71,West,271,0.0,0.0,95,0.00,,,0.30,,2013-03-10 14:22:00,
2013-03-10 10:32:00,32.0,31.0,30.71,West,270,0.0,0.0,95,0.00,,,0.30,,2013-03-10 14:32:00,
2013-03-10 10:42:00,32.0,31.0,30.71,West,270,0.0,0.0,95,0.00,,,0.30,,2013-03-10 14:42:00,
2013-03-10 10:52:00,34.0,31.0,30.71,NE,50,0.0,1.0,90,0.00,,,0.30,,2013-03-10 14:52:00,
2013-03-10 11:01:00,34.0,31.0,30.71,SE,132,0.0,1.0,88,0.00,,,0.30,,2013-03-10 15:01:00,
2013-03-10 11:11:00,34.0,31.0,30.71,SE,132,0.0,1.0,88,0.00,,,0.30,,2013-03-10 15:11:00,
2013-03-10 11:21:00,36.0,31.0,30.71,South,173,1.0,3.0,83,0.00,,,0.30,,2013-03-10 15:21:00,
2013-03-10 11:32:00,37.0,32.0,30.71,NE,48,0.0,5.0,81,0.00,,,0.30,,2013-03-10 15:32:00,
2013-03-10 11:42:00,37.0,32.0,30.71,NE,48,0.0,5.0,81,0.00,,,0.30,,2013-03-10 15:42:00,
2013-03-10 11:52:00,37.0,31.0,30.70,ENE,63,1.0,3.0,80,0.00,,,0.30,,2013-03-10 15:52:00,
2013-03-10 12:02:00,38.0,32.0,30.70,East,98,0.0,6.0,78,0.00,,,0.30,,2013-03-10 16:02:00,
2013-03-10 12:12:00,38.0,32.0,30.70,East,98,0.0,6.0,78,0.00,,,0.30,,2013-03-10 16:12:00,
2013-03-10 12:21:00,40.0,32.0,30.70,SSW,207,1.0,6.0,74,0.00,,,0.29,,2013-03-10 16:21:00,
2013-03-10 12:32:00,40.0,32.0,30.69,SW,219,1.0,2.0,74,0.00,,,0.29,,2013-03-10 16:32:00,
2013-03-10 12:41:00,40.0,32.0,30.69,SW,219,1.0,2.0,74,0.00,,,0.29,,2013-03-10 16:41:00,
2013-03-10 12:52:00,40.0,32.0,30.68,SSW,193,2.0,3.0,73,0.00,,,0.27,,2013-03-10 16:52:00,
2013-03-10 13:01:00,40.0,32.0,30.68,SE,143,2.0,5.0,73,0.00,,,0.24,,2013-03-10 17:01:00,
2013-03-10 13:11:00,40.0,32.0,30.68,SE,143,2.0,5.0,73,0.00,,,0.24,,2013-03-10 17:11:00,
2013-03-10 13:21:00,41.0,32.0,30.68,NE,56,1.0,3.0,70,0.00,,,0.23,,2013-03-10 17:21:00,
2013-03-10 13:31:00,42.0,32.0,30.67,East,84,1.0,6.0,68,0.00,,,0.23,,2013-03-10 17:31:00,
2013-03-10 13:41:00,42.0,32.0,30.67,East,84,1.0,6.0,68,0.00,,,0.23,,2013-03-10 17:41:00,
2013-03-10 13:51:00,42.0,33.0,30.66,SE,133,0.0,7.0,69,0.01,,,0.24,,2013-03-10 17:51:00,
2013-03-10 14:01:00,42.0,32.0,30.66,East,93,2.0,6.0,68,0.01,,,0.24,,2013-03-10 18:01:00,
2013-03-10 14:11:00,42.0,32.0,30.66,East,93,2.0,6.0,68,0.01,,,0.24,,2013-03-10 18:11:00,
2013-03-10 14:22:00,43.0,33.0,30.66,West,274,2.0,3.0,67,0.01,,,0.24,,2013-03-10 18:22:00,
2013-03-10 14:32:00,43.0,33.0,30.66,ESE,120,2.0,3.0,67,0.01,,,0.22,,2013-03-10 18:32:00,
2013-03-10 14:42:00,43.0,33.0,30.66,ESE,120,2.0,3.0,67,0.01,,,0.22,,2013-03-10 18:42:00,
2013-03-10 14:52:00,43.0,32.0,30.66,West,271,2.0,3.0,66,0.00,,,0.15,,2013-03-10 18:52:00,
2013-03-10 15:01:00,42.0,32.0,30.65,East,89,2.0,6.0,68,0.00,,,0.13,,2013-03-10 19:01:00,
2013-03-10 15:11:00,42.0,32.0,30.65,East,89,2.0,6.0,68,0.00,,,0.13,,2013-03-10 19:11:00,
2013-03-10 15:21:00,43.0,32.0,30.64,NE,56,2.0,5.0,66,0.00,,,0.08,,2013-03-10 19:21:00,
2013-03-10 15:32:00,43.0,33.0,30.64,ENE,67,1.0,5.0,67,0.00,,,0.07,,2013-03-10 19:32:00,
2013-03-10 15:42:00,43.0,33.0,30.64,ENE,67,1.0,5.0,67,0.00,,,0.07,,2013-03-10 19:42:00,
2013-03-10 15:53:00,44.0,33.0,30.63,WSW,246,2.0,3.0,65,0.00,,,0.05,,2013-03-10 19:53:00,
2013-03-10 16:02:00,43.0,32.0,30.64,SE,136,1.0,3.0,66,0.00,,,0.04,,2013-03-10 20:02:00,
2013-03-10 16:12:00,43.0,32.0,30.64,SE,136,1.0,3.0,66,0.00,,,0.04,,2013-03-10 20:12:00,
2013-03-10 16:22:00,43.0,32.0,30.63,WNW,290,1.0,5.0,66,0.00,,,0.02,,2013-03-10 20:22:00,
2013-03-10 16:32:00,42.0,32.0,30.63,WSW,243,1.0,3.0,67,0.00,,,0.02,,2013-03-10 20:32:00,
2013-03-10 16:43:00,42.0,32.0,30.63,WSW,243,1.0,3.0,67,0.00,,,0.02,,2013-03-10 20:43:00,
2013-03-10 16:53:00,42.0,33.0,30.62,ESE,111,1.0,3.0,69,0.00,,,0.01,,2013-03-10 20:53:00,
2013-03-10 17:02:00,41.0,32.0,30.62,East,79,1.0,5.0,70,0.00,,,0.01,,2013-03-10 21:02:00,
2013-03-10 17:12:00,41.0,32.0,30.62,East,79,1.0,5.0,70,0.00,,,0.01,,2013-03-10 21:12:00,
2013-03-10 17:23:00,41.0,33.0,30.63,ENE,64,1.0,5.0,73,0.00,,,0.01,,2013-03-10 21:23:00,
2013-03-10 17:32:00,41.0,33.0,30.63,West,273,0.0,3.0,74,0.00,,,0.01,,2013-03-10 21:32:00,
2013-03-10 17:42:00,41.0,33.0,30.63,West,273,0.0,3.0,74,0.00,,,0.01,,2013-03-10 21:42:00,
2013-03-10 17:53:00,40.0,33.0,30.62,East,95,1.0,5.0,75,0.00,,,0.01,,2013-03-10 21:53:00,
2013-03-10 18:02:00,39.0,32.0,30.63,ESE,114,2.0,5.0,76,0.00,,,0.01,,2013-03-10 22:02:00,
2013-03-10 18:12:00,39.0,32.0,30.63,ESE,114,2.0,5.0,76,0.00,,,0.01,,2013-03-10 22:12:00,
2013-03-10 18:22:00,39.0,32.0,30.63,East,86,0.0,3.0,77,0.00,,,0.01,,2013-03-10 22:22:00,
2013-03-10 18:32:00,38.0,32.0,30.62,ENE,77,1.0,3.0,79,0.00,,,0.01,,2013-03-10 22:32:00,
2013-03-10 18:43:00,38.0,32.0,30.62,ENE,77,1.0,3.0,79,0.00,,,0.01,,2013-03-10 22:43:00,
2013-03-10 18:52:00,37.0,32.0,30.62,ESE,114,0.0,3.0,81,0.00,,,0.01,,2013-03-10 22:52:00,
2013-03-10 19:03:00,36.0,31.0,30.63,East,101,0.0,1.0,82,0.00,,,0.01,,2013-03-10 23:03:00,
2013-03-10 19:12:00,36.0,32.0,30.63,SSW,199,1.0,3.0,84,0.00,,,0.01,,2013-03-10 23:12:00,
2013-03-10 19:23:00,36.0,32.0,30.63,SSW,199,1.0,3.0,84,0.00,,,0.01,,2013-03-10 23:23:00,
2013-03-10 19:33:00,35.0,31.0,30.63,NW,316,0.0,1.0,85,0.00,,,0.01,,2013-03-10 23:33:00,
2013-03-10 19:42:00,35.0,31.0,30.63,NW,316,0.0,1.0,85,0.00,,,0.01,,2013-03-10 23:42:00,
2013-03-10 19:52:00,35.0,31.0,30.63,East,98,0.0,2.0,86,0.00,,,0.01,,2013-03-10 23:52:00,
2013-03-10 20:02:00,35.0,31.0,30.64,East,81,0.0,1.0,86,0.00,,,0.01,,2013-03-11 00:02:00,
2013-03-10 20:13:00,35.0,31.0,30.64,East,81,0.0,1.0,86,0.00,,,0.01,,2013-03-11 00:13:00,
2013-03-10 20:23:00,34.0,30.0,30.63,East,91,0.0,2.0,86,0.00,,,0.01,,2013-03-11 00:23:00,
2013-03-10 20:33:00,34.0,31.0,30.64,East,91,0.0,0.0,87,0.00,,,0.01,,2013-03-11 00:33:00,
2013-03-10 20:43:00,34.0,31.0,30.64,East,91,0.0,0.0,87,0.00,,,0.01,,2013-03-11 00:43:00,
2013-03-10 20:53:00,34.0,31.0,30.64,East,89,0.0,1.0,89,0.00,,,0.01,,2013-03-11 00:53:00,
2013-03-10 21:03:00,34.0,31.0,30.63,SW,228,0.0,1.0,89,0.00,,,0.01,,2013-03-11 01:03:00,
2013-03-10 21:13:00,34.0,31.0,30.63,SW,228,0.0,1.0,89,0.00,,,0.01,,2013-03-11 01:13:00,
2013-03-10 21:23:00,34.0,31.0,30.63,ESE,107,0.0,2.0,88,0.00,,,0.01,,2013-03-11 01:23:00,
2013-03-10 21:32:00,34.0,31.0,30.63,East,84,0.0,1.0,88,0.00,,,0.01,,2013-03-11 01:32:00,
2013-03-10 21:43:00,34.0,31.0,30.63,East,84,0.0,1.0,88,0.00,,,0.01,,2013-03-11 01:43:00,
2013-03-10 21:53:00,34.0,31.0,30.62,SSE,155,1.0,3.0,88,0.00,,,0.01,,2013-03-11 01:53:00,
2013-03-10 22:02:00,34.0,31.0,30.62,East,100,0.0,2.0,88,0.00,,,0.01,,2013-03-11 02:02:00,
2013-03-10 22:12:00,34.0,31.0,30.62,East,100,0.0,2.0,88,0.00,,,0.01,,2013-03-11 02:12:00,
2013-03-10 22:23:00,34.0,31.0,30.62,WSW,255,0.0,0.0,89,0.00,,,0.01,,2013-03-11 02:23:00,
2013-03-10 22:32:00,34.0,31.0,30.61,WSW,255,0.0,0.0,89,0.00,,,0.01,,2013-03-11 02:32:00,
2013-03-10 22:42:00,34.0,31.0,30.61,WSW,255,0.0,0.0,89,0.00,,,0.01,,2013-03-11 02:42:00,
2013-03-10 22:53:00,34.0,31.0,30.60,East,101,0.0,2.0,89,0.00,,,0.01,,2013-03-11 02:53:00,
2013-03-10 23:02:00,34.0,31.0,30.60,WSW,256,1.0,2.0,89,0.00,,,0.01,,2013-03-11 03:02:00,
2013-03-10 23:12:00,34.0,31.0,30.60,WSW,256,1.0,2.0,89,0.00,,,0.01,,2013-03-11 03:12:00,
2013-03-10 23:22:00,34.0,31.0,30.62,West,264,0.0,1.0,89,0.00,,,0.01,,2013-03-11 03:22:00,
2013-03-10 23:32:00,34.0,31.0,30.63,West,264,0.0,1.0,89,0.00,,,0.01,,2013-03-11 03:32:00,
2013-03-10 23:42:00,34.0,31.0,30.63,West,264,0.0,1.0,89,0.00,,,0.01,,2013-03-11 03:42:00,
2013-03-10 23:53:00,34.0,32.0,30.61,West,263,0.0,1.0,91,0.00,,,0.01,,2013-03-11 03:53:00,